Weather History for Rome, NY

Change the Weather History Date:

Sunday, February 3, 2013

  Actual Average Record
Temperature  
Mean Temperature 13 °F -  
Max Temperature 25 °F 33 °F 52 °F (1991)
Min Temperature 1 °F 15 °F -3 °F (1985)
Degree Days  
Heating Degree Days 52    
Moisture  
Dew Point 10 °F    
Average Humidity 78    
Maximum Humidity 93    
Minimum Humidity 55    
Precipitation  
Precipitation 0.00 in - - ()
Sea Level Pressure  
Sea Level Pressure 29.88 in    
Wind  
Wind Speed 3 mph (West)    
Max Wind Speed 9 mph    
Max Gust Speed -    
Visibility 8 miles    
Events Snow    
Averages and records for this station are not official NWS values.
T = Trace of Precipitation, MM = Missing Value Source: NWS Daily Summary

Daily Weather History Graph

Daily Weather History Graph

Search for Another Location

Airport:

Trip Planner

Search our weather history database for the weather conditions in past years. The results will help you decide how hot, cold, wet, or windy it might be!

Date:

Astronomy

Feb. 03, 2013 Rise Set
Actual Time 7:14 AM EST 5:16 PM EST
Civil Twilight 6:44 AM EST 5:46 PM EST
Nautical Twilight 6:10 AM EST 6:20 PM EST
Astronomical Twilight 5:37 AM EST 6:54 PM EST
Moon 12:40 AM EST (2/3) 10:51 AM EST (2/3)
Length of Visible Light 11h 02m
Length of Day
10h 02m
Waning Gibbous, 49% of the Moon is Illuminated
Feb 3
Waning Gibbous
Feb 10
New
Feb 17
First Quarter
Feb 25
Full
Mar 4
Last Quarter

Hourly Weather History & Observations

Time (EST) Temp. Windchill Dew Point Humidity Pressure Visibility Wind Dir Wind Speed Gust Speed Precip Events Conditions
12:53 AM 5.0 °F - 1.0 °F 84% 30.03 in 10.0 mi Calm Calm - N/A   Clear
1:53 AM 6.1 °F -0.9 °F 3.0 °F 87% 30.02 in 10.0 mi Variable 3.5 mph - N/A   Clear
2:53 AM 5.0 °F - 1.9 °F 87% 30.02 in 10.0 mi Calm Calm - N/A   Clear
4:53 AM 1.9 °F - -2.0 °F 83% 30.00 in 10.0 mi Calm Calm - N/A   Clear
5:53 AM 3.0 °F - -0.0 °F 87% 29.98 in 10.0 mi Calm Calm - N/A   Clear
6:53 AM 3.0 °F -6.4 °F -0.0 °F 87% 29.96 in 10.0 mi ESE 4.6 mph - N/A   Clear
7:53 AM 3.0 °F - -2.0 °F 80% 29.96 in 10.0 mi Calm Calm - N/A   Clear
8:53 AM 6.1 °F -2.8 °F 3.9 °F 91% 29.96 in 10.0 mi SE 4.6 mph - N/A   Clear
9:53 AM 16.0 °F 5.3 °F 10.0 °F 77% 29.95 in 10.0 mi ESE 8.1 mph - N/A   Clear
10:53 AM 21.0 °F 10.6 °F 12.0 °F 68% 29.93 in 10.0 mi SE 9.2 mph - 0.00 in   Clear
11:53 AM 21.9 °F 14.5 °F 12.0 °F 66% 29.90 in 10.0 mi Variable 5.8 mph - N/A   Clear
12:53 PM 24.1 °F 19.7 °F 12.0 °F 60% 29.86 in 10.0 mi Variable 3.5 mph - N/A   Mostly Cloudy
1:53 PM 25.0 °F 20.7 °F 12.9 °F 60% 29.83 in 10.0 mi Variable 3.5 mph - N/A   Overcast
2:53 PM 25.0 °F 20.7 °F 12.9 °F 60% 29.81 in 10.0 mi NW 3.5 mph - N/A   Mostly Cloudy
3:53 PM 25.0 °F 19.3 °F 12.9 °F 60% 29.81 in 10.0 mi NW 4.6 mph - N/A   Overcast
4:53 PM 25.0 °F - 10.9 °F 55% 29.81 in 10.0 mi Calm Calm - N/A   Mostly Cloudy
5:53 PM 21.0 °F - 12.9 °F 71% 29.80 in 10.0 mi Calm Calm - N/A   Overcast
6:53 PM 21.9 °F - 14.0 °F 72% 29.82 in 10.0 mi Calm Calm - N/A   Overcast
7:53 PM 19.9 °F - 14.0 °F 78% 29.82 in 10.0 mi Calm Calm - N/A   Overcast
8:53 PM 19.9 °F - 15.1 °F 81% 29.82 in 10.0 mi Calm Calm - N/A   Overcast
9:44 PM 19.9 °F - 17.1 °F 89% 29.80 in 2.5 mi Calm Calm - 0.00 in Snow Light Snow
9:53 PM 19.9 °F 14.9 °F 17.1 °F 89% 29.83 in 3.0 mi NNW 3.5 mph - 0.00 in Snow Light Snow
10:53 PM 21.0 °F 11.4 °F 17.1 °F 85% 29.82 in 4.0 mi West 8.1 mph - 0.00 in Snow Light Snow
11:06 PM 21.0 °F 11.4 °F 18.0 °F 88% 29.80 in 2.5 mi West 8.1 mph - 0.00 in Snow Light Snow
11:20 PM 21.0 °F 10.6 °F 18.0 °F 88% 29.80 in 2.5 mi West 9.2 mph - 0.00 in Snow Light Snow
11:50 PM 19.4 °F 8.6 °F 17.6 °F 93% 29.81 in 1.5 mi West 9.2 mph - 0.00 in Snow Light Snow
11:53 PM 19.9 °F 10.1 °F 18.0 °F 92% 29.83 in 1.5 mi West 8.1 mph - 0.00 in Snow Light Snow